Weather History for KROG - May, 2013

Change the Weather History Date:

Monday, May 20, 2013

  Actual Average Record
Temperature  
Mean Temperature 70 °F -  
Max Temperature 77 °F 72 °F 89 °F (2006)
Min Temperature 64 °F 55 °F 48 °F (1997)
Cooling Degree Days 6    
Growing Degree Days 20 (Base 50)    
Moisture  
Dew Point 65 °F    
Average Humidity 82    
Maximum Humidity 100    
Minimum Humidity 66    
Precipitation  
Precipitation 0.05 in - - ()
Sea Level Pressure  
Sea Level Pressure 29.78 in    
Wind  
Wind Speed 11 mph (SE)    
Max Wind Speed 20 mph    
Max Gust Speed 29 mph    
Visibility 9 miles    
Events Rain , Thunderstorm    
Averages and records for this station are not official NWS values.
T = Trace of Precipitation, MM = Missing Value Source: NWS Daily Summary

Daily Weather History Graph

Daily Weather History Graph

Search for Another Location

Airport or City:

Trip Planner

Search our weather history database for the weather conditions in past years. The results will help you decide how hot, cold, wet, or windy it might be!

Date:

Astronomy

May. 20, 2013 Rise Set
Actual Time 6:05 AM CDT 8:20 PM CDT
Civil Twilight 5:36 AM CDT 8:49 PM CDT
Nautical Twilight 5:01 AM CDT 9:25 PM CDT
Astronomical Twilight 4:22 AM CDT 10:04 PM CDT
Moon 3:36 PM CDT (5/20) 2:52 AM CDT (5/20)
Length of Visible Light 15h 12m
Length of Day
14h 14m
Waxing Gibbous, 75% of the Moon is Illuminated
May 20
Waxing Gibbous
May 24
Full
May 31
Last Quarter
Jun 8
New
Jun 16
First Quarter

Hourly Weather History & Observations

Time (CDT) Temp. Dew Point Humidity Pressure Visibility Wind Dir Wind Speed Gust Speed Precip Events Conditions
12:57 AM 77.0 °F 64.9 °F 66% 29.73 in 10.0 mi South 19.6 mph 28.8 mph N/A   Clear
1:57 AM 75.0 °F 64.9 °F 71% 29.74 in 10.0 mi South 10.4 mph 21.9 mph N/A   Mostly Cloudy
2:57 AM 75.0 °F 64.9 °F 71% 29.74 in 10.0 mi SSE 6.9 mph - N/A   Overcast
3:57 AM 73.0 °F 64.0 °F 73% 29.73 in 10.0 mi SSE 11.5 mph - N/A   Clear
4:57 AM 71.1 °F 64.0 °F 78% 29.75 in 10.0 mi SE 4.6 mph - N/A   Mostly Cloudy
5:48 AM 66.2 °F 62.6 °F 88% 29.84 in 10.0 mi North 10.4 mph - N/A   Overcast
5:57 AM 66.0 °F 61.0 °F 84% 29.80 in 10.0 mi North 9.2 mph - N/A   Overcast
6:45 AM 64.4 °F 60.8 °F 88% 29.85 in 10.0 mi East 11.5 mph - N/A   Overcast
6:57 AM 66.0 °F 60.1 °F 81% 29.80 in 10.0 mi East 12.7 mph - N/A   Overcast
7:57 AM 66.9 °F 61.0 °F 81% 29.81 in 10.0 mi ESE 11.5 mph - N/A   Overcast
8:32 AM 66.2 °F 60.8 °F 83% 29.85 in 10.0 mi East 8.1 mph - N/A   Overcast
8:57 AM 66.9 °F 62.1 °F 84% 29.81 in 10.0 mi East 8.1 mph - N/A   Overcast
9:57 AM 68.0 °F 64.9 °F 90% 29.82 in 6.0 mi East 3.5 mph - 0.00 in Rain Light Rain
10:44 AM 66.2 °F 66.2 °F 100% 29.86 in 2.5 mi NE 4.6 mph - 0.02 in Rain Light Rain
10:52 AM 68.0 °F 66.2 °F 94% 29.86 in 3.0 mi East 3.5 mph - 0.02 in Rain Light Rain
10:57 AM 68.0 °F 66.0 °F 93% 29.82 in 4.0 mi SE 3.5 mph - 0.02 in Rain Light Rain
11:57 AM 70.0 °F 66.9 °F 90% 29.81 in 7.0 mi SSE 10.4 mph - 0.00 in   Overcast
12:57 PM 71.1 °F 66.9 °F 87% - 9.0 mi SSE 11.5 mph - N/A   Overcast
1:57 PM 73.0 °F 68.0 °F 84% 29.78 in 10.0 mi SE 10.4 mph - N/A   Overcast
2:57 PM 73.9 °F 68.0 °F 82% 29.77 in 10.0 mi SSE 10.4 mph - N/A   Overcast
3:57 PM 75.0 °F 68.0 °F 79% 29.73 in 10.0 mi SSE 10.4 mph - N/A   Overcast
4:15 PM 75.2 °F 69.8 °F 83% 29.77 in 10.0 mi SSE 11.5 mph - N/A   Overcast
4:57 PM 77.0 °F 68.0 °F 74% 29.72 in 10.0 mi SSE 11.5 mph - N/A   Overcast
5:57 PM 75.9 °F 68.0 °F 76% 29.73 in 10.0 mi South 9.2 mph - N/A   Overcast
6:57 PM 75.2 °F 69.8 °F 83% 29.75 in 10.0 mi South 9.2 mph - N/A Thunderstorm Overcast
6:59 PM 75.0 °F 69.1 °F 82% 29.72 in 10.0 mi South 8.1 mph - N/A Thunderstorm Overcast
7:21 PM 73.4 °F 64.4 °F 73% - 2.5 mi North - - 0.03 in Rain , Thunderstorm Heavy Thunderstorms and Rain
7:26 PM 73.4 °F 64.4 °F 73% - - North - - 0.03 in Thunderstorm Thunderstorm
7:57 PM - - N/A% - - North - - 0.03 in Thunderstorm Thunderstorm
8:10 PM - - N/A% - - North - - N/A   Unknown
8:24 PM - - N/A% - - North - - N/A Thunderstorm Unknown
8:39 PM - - N/A% - - North - - N/A   Unknown
8:57 PM - - N/A% - - North - - N/A   Unknown
9:57 PM - - N/A% - - North - - N/A   Unknown
10:42 PM - - N/A% - - North - - N/A Thunderstorm Thunderstorm
10:57 PM - - N/A% - - North - - N/A   Unknown
11:57 PM - - N/A% - - North - - N/A   Unknown